Notices

What's New in latest Release from April 7th, 2021:

- Updated Glossary, including Speed of Maximum Gust, and Total Hourly Precipitation

- Updated national and regional climate services offices contacts and prices information

- Addition of station inventory lists for 1981-2010, 1971-2000, and 1961-1990 Normals.

If you haven't already, please take our survey and provide feedback about our website: https://eccc.sondage-survey.ca/f/LanguageSelection.aspx?s=442ca660-fcf1-47c0-95a9-59707d6fd709

Hourly Data Report for May 12, 2021

SHEARWATER RCS
NOVA SCOTIA
Current Station Operator: ECCC - MSC

44°37'47.000" N
63°30'48.000" W
24.00 m
8205092
71264
AAW

Download Data

Hourly Data (May 2021)
Hourly Data Report for May 12, 2021
TIME
LST
Temp Definition
°C
Dew Point Definition
°C
Rel Hum Definition
%
Precip. Amount Definition
mm

Wind Dir Definition
10's deg

Wind Spd Definition
km/h
Visibility Definition
km
Stn Press Definition
kPa
Hmdx Definition


Wind Chill Definition


Weather Definition


00:00 5.1 4.5 96 0.0 18 13   100.74     LegendNANA
01:00 5.1 4.7 97 0.0 21 13   100.70     LegendNANA
02:00 5.3 5.0 98 0.9 20 8   100.60     LegendNANA
03:00 5.4 4.9 97 0.0 21 11   100.57     LegendNANA
04:00 5.6 5.1 97 0.0 23 11   100.55     LegendNANA
05:00 6.1 5.4 95 0.0 25 5   100.54     LegendNANA
06:00 6.8 5.7 93 0.0 25 7   100.56     LegendNANA
07:00 8.0 6.1 88 0.0 27 7   100.58     LegendNANA
08:00 7.9 6.0 88 0.0 26 8   100.64     LegendNANA
09:00 8.4 5.8 83 0.0 26 11   100.62     LegendNANA
10:00 9.4 6.4 82 0.0 27 9   100.66     LegendNANA
11:00 8.4 6.7 89 2.9 27 7   100.69     LegendNANA
12:00 10.3 6.8 79 0.0 28 8   100.69     LegendNANA
13:00 10.6 6.7 76 0.0 34 8   100.73     LegendNANA
14:00 10.1 7.0 81 0.2 35 14   100.80     LegendNANA
15:00 10.4 6.0 74 0.0 35 15   100.84     LegendNANA
16:00 9.8 5.8 76 0.0 35 14   100.94     LegendNANA
17:00 9.2 5.4 77 0.0 35 17   101.05     LegendNANA
18:00 9.4 4.0 69 0.0 34 13   101.13     LegendNANA
19:00 9.0 3.3 67 0.0 35 11   101.20     LegendNANA
20:00 7.9 3.3 73 0.2 35 6   101.30     LegendNANA
21:00 7.0 2.8 74 0.0 35 7   101.40     LegendNANA
22:00 6.2 2.5 77 0.0 35 7   101.43     LegendNANA
23:00 5.4 2.0 78 0.0 34 6   101.46     LegendNANA

Notes on Data Quality.

Legend

  • E = Estimated
  • M = Missing
  • NA = Not Available*
  • [empty] = Indicates an unobserved value
Date modified: